Location: Lake Lucerne
(45.5315°N, 88.8489°W)
Time: 05:21:15
(UTC-05:00)

Tiangong 2 - Visible Passes

Search period start: 21 August 2017 00:00
Search period end: 31 August 2017 00:00
Orbit: 390 x 395 km, 42.8° (Epoch: 20 August)

Date Brightness Start Highest point End Pass type
(mag) Time Alt. Az. Time Alt. Az. Time Alt. Az.
21 Aug 2.3 05:02:41 15° SW 05:04:49 31° SSE 05:07:43 10° E visible
22 Aug 2.8 04:08:15 22° SSE 04:08:15 22° SSE 04:10:32 10° ESE visible
23 Aug 1.7 04:46:10 27° SW 04:47:29 42° S 04:50:34 10° E visible
24 Aug 2.9 03:51:43 24° ESE 03:51:43 24° ESE 03:53:27 10° E visible
24 Aug 1.4 05:24:06 10° WSW 05:27:10 52° S 05:30:19 10° ESE visible
25 Aug 1.4 04:29:40 45° SSW 04:30:09 50° S 04:33:17 10° E visible
26 Aug 3.6 03:35:16 17° ESE 03:35:16 17° ESE 03:36:13 10° E visible
26 Aug 1.5 05:07:38 17° WSW 05:09:49 47° S 05:12:56 10° ESE visible
27 Aug 1.7 04:13:19 45° SE 04:13:19 45° SE 04:15:56 10° ESE visible
28 Aug 1.8 04:51:28 29° SW 04:52:25 37° SSW 04:55:25 10° SE visible
29 Aug 3.3 03:57:22 19° ESE 03:57:22 19° ESE 03:58:28 10° ESE visible
29 Aug 2.8 05:29:47 11° WSW 05:31:52 19° SSW 05:34:13 10° SSE visible
30 Aug 2.7 04:35:51 22° S 04:35:51 22° S 04:37:39 10° SE visible
